Pittsburgh Allegheny Co., PA

1:30 PM EDT on October 19, 2017 (GMT -0400)
Allegheny County

Weather History for KAGC - February, 2014

Change the Weather History Date:

Sunday, February 9, 2014

  Actual Average Record
Temperature  
Mean Temperature 24 °F -  
Max Temperature 30 °F 34 °F 68 °F (2001)
Min Temperature 18 °F 21 °F 1 °F (1975)
Degree Days  
Heating Degree Days 41    
Moisture  
Dew Point 19 °F    
Average Humidity 81    
Maximum Humidity 93    
Minimum Humidity 65    
Precipitation  
Precipitation 0.08 in - - ()
Sea Level Pressure  
Sea Level Pressure 30.03 in    
Wind  
Wind Speed 5 mph (SSW)    
Max Wind Speed 16 mph    
Max Gust Speed 24 mph    
Visibility 5 miles    
Events Fog , Snow    
Averages and records for this station are not official NWS values.
T = Trace of Precipitation, MM = Missing Value Source: NWS Daily Summary

Daily Weather History Graph

Daily Weather History Graph

Search for Another Location

Airport or City:

Trip Planner

Search our weather history database for the weather conditions in past years. The results will help you decide how hot, cold, wet, or windy it might be!

Date:

Astronomy

Feb. 09, 2014 Rise Set
Actual Time 7:20 AM EST 5:47 PM EST
Civil Twilight 6:52 AM EST 6:16 PM EST
Nautical Twilight 6:20 AM EST 6:48 PM EST
Astronomical Twilight 5:48 AM EST 7:20 PM EST
Moon 1:26 PM EST (2/9) 3:24 AM EST (2/9)
Length of Visible Light 11h 24m
Length of Day
10h 27m
Waxing Gibbous, 77% of the Moon is Illuminated
Feb 9
Waxing Gibbous
Feb 14
Full
Feb 22
Last Quarter
Mar 1
New
Mar 8
First Quarter

Hourly Weather History & Observations

Time (EST) Temp. Windchill Dew Point Humidity Pressure Visibility Wind Dir Wind Speed Gust Speed Precip Events Conditions
12:53 AM 21.0 °F - 12.0 °F 68% 30.20 in 10.0 mi Calm Calm - 0.00 in   Overcast
1:53 AM 21.0 °F 16.2 °F 12.9 °F 71% 30.19 in 9.0 mi ESE 3.5 mph - N/A   Overcast
2:53 AM 19.9 °F 14.9 °F 12.9 °F 74% 30.17 in 10.0 mi East 3.5 mph - N/A   Overcast
3:04 AM 19.4 °F 14.3 °F 12.2 °F 74% 30.10 in 10.0 mi East 3.5 mph - N/A   Overcast
3:53 AM 19.9 °F 13.4 °F 12.9 °F 74% 30.16 in 10.0 mi SE 4.6 mph - N/A   Overcast
4:53 AM 19.9 °F 14.9 °F 16.0 °F 85% 30.14 in 7.0 mi SE 3.5 mph - N/A   Overcast
5:16 AM 19.4 °F 12.8 °F 15.8 °F 86% 30.07 in 9.0 mi SSE 4.6 mph - N/A   Overcast
5:53 AM 19.9 °F - 16.0 °F 85% 30.13 in 10.0 mi Calm Calm - N/A   Overcast
6:29 AM 21.2 °F - 15.8 °F 80% 30.06 in 10.0 mi Calm Calm - N/A   Overcast
6:53 AM 21.0 °F - 16.0 °F 81% 30.12 in 10.0 mi Calm Calm - N/A   Overcast
7:53 AM 21.0 °F 12.4 °F 17.1 °F 85% 30.12 in 4.0 mi South 6.9 mph - N/A   Overcast
8:21 AM 21.2 °F 14.9 °F 17.6 °F 86% 30.04 in 4.0 mi SSE 4.6 mph - N/A   Overcast
8:50 AM 21.2 °F 14.9 °F 17.6 °F 86% 30.04 in 2.5 mi South 4.6 mph - N/A   Overcast
8:53 AM 21.9 °F 14.5 °F 18.0 °F 85% 30.11 in 2.5 mi South 5.8 mph - N/A   Overcast
9:00 AM 21.2 °F 13.6 °F 19.4 °F 93% 30.04 in 2.0 mi South 5.8 mph - N/A   Overcast
9:04 AM 21.2 °F 14.9 °F 19.4 °F 93% 30.03 in 1.8 mi South 4.6 mph - N/A   Overcast
9:53 AM 23.0 °F 15.8 °F 21.0 °F 92% 30.08 in 1.5 mi SSE 5.8 mph - N/A   Overcast
10:00 AM 23.0 °F 13.9 °F 21.2 °F 93% 30.00 in 1.5 mi SSE 8.1 mph - N/A   Overcast
10:09 AM 23.0 °F 14.7 °F 21.2 °F 93% 29.99 in 0.8 mi SSE 6.9 mph - 0.00 in Snow Light Snow
10:24 AM 24.8 °F 16.9 °F 21.2 °F 86% 29.98 in 1.0 mi SSE 6.9 mph - 0.00 in Snow Light Snow
10:41 AM 24.8 °F 20.5 °F 21.2 °F 86% 29.96 in 2.5 mi SSE 3.5 mph - 0.00 in   Overcast
10:53 AM 25.0 °F 16.3 °F 21.0 °F 85% 30.04 in 2.5 mi South 8.1 mph - 0.00 in   Overcast
11:02 AM 24.8 °F 17.9 °F 21.2 °F 86% 29.96 in 3.0 mi South 5.8 mph - N/A   Overcast
11:12 AM 24.8 °F 16.9 °F 21.2 °F 86% 29.96 in 2.0 mi South 6.9 mph - N/A   Overcast
11:28 AM 26.6 °F 18.2 °F 23.0 °F 86% 29.95 in 1.0 mi South 8.1 mph - 0.01 in Snow Light Snow
11:35 AM 26.6 °F 20.0 °F 23.0 °F 86% 29.94 in 0.5 mi South 5.8 mph - 0.01 in Fog , Snow Light Snow
11:53 AM 26.1 °F 17.6 °F 23.0 °F 88% 30.00 in 0.5 mi South 8.1 mph - 0.02 in Fog , Snow Snow
12:53 PM 27.0 °F 19.5 °F 24.1 °F 89% 29.97 in 0.8 mi SSW 6.9 mph - 0.03 in Snow Light Snow
1:06 PM 28.4 °F 20.4 °F 24.8 °F 86% 29.90 in 0.8 mi South 8.1 mph - 0.00 in Snow Light Snow
1:16 PM 28.4 °F 20.4 °F 24.8 °F 86% 29.90 in 1.5 mi SSW 8.1 mph - 0.01 in Snow Light Snow
1:30 PM 28.4 °F 19.1 °F 24.8 °F 86% 29.90 in 0.8 mi SSW 10.4 mph - 0.01 in Snow Light Snow
1:44 PM 28.4 °F 19.1 °F 24.8 °F 86% 29.90 in 1.0 mi SW 10.4 mph - 0.01 in Snow Light Snow
1:53 PM 28.9 °F 19.8 °F 25.0 °F 85% 29.96 in 0.8 mi WSW 10.4 mph - 0.01 in Snow Light Snow
2:50 PM 30.2 °F 21.9 °F 24.8 °F 80% 29.90 in 0.8 mi West 9.2 mph 18.4 mph 0.01 in Snow Light Snow
2:53 PM 30.0 °F 21.1 °F 25.0 °F 82% 29.97 in 0.5 mi West 10.4 mph 18.4 mph 0.01 in Snow Snow
3:07 PM 28.4 °F 18.0 °F 24.8 °F 86% 29.91 in 1.0 mi West 12.7 mph 17.3 mph 0.01 in Snow Light Snow
3:33 PM 28.4 °F 18.5 °F 23.0 °F 80% 29.92 in 0.5 mi West 11.5 mph 21.9 mph 0.01 in Snow Snow
3:49 PM 28.4 °F 21.2 °F 24.8 °F 86% 29.92 in 1.8 mi West 6.9 mph - 0.01 in Snow Light Snow
3:53 PM 28.0 °F 18.6 °F 23.0 °F 81% 29.99 in 2.0 mi West 10.4 mph - 0.01 in Snow Light Snow
4:07 PM 28.4 °F 19.1 °F 21.2 °F 74% 29.93 in 7.0 mi WNW 10.4 mph 24.2 mph 0.00 in Snow Light Snow
4:15 PM 28.4 °F 16.6 °F 19.4 °F 69% 29.93 in 9.0 mi West 16.1 mph 23.0 mph 0.00 in   Overcast
4:49 PM 28.4 °F 19.7 °F 19.4 °F 69% 29.95 in 8.0 mi West 9.2 mph - 0.00 in Snow Light Snow
4:53 PM 28.0 °F 19.3 °F 19.9 °F 72% 30.01 in 4.0 mi West 9.2 mph - 0.00 in Snow Light Snow
5:53 PM 27.0 °F 16.1 °F 19.0 °F 72% 30.04 in 7.0 mi West 12.7 mph 19.6 mph 0.00 in   Overcast
6:53 PM 25.0 °F 19.3 °F 18.0 °F 75% 30.09 in 9.0 mi WNW 4.6 mph - 0.00 in   Overcast
7:53 PM 23.0 °F 14.7 °F 12.9 °F 65% 30.13 in 10.0 mi NW 6.9 mph - N/A   Overcast
8:53 PM 19.9 °F 11.1 °F 10.0 °F 65% 30.17 in 10.0 mi WNW 6.9 mph 21.9 mph N/A   Overcast
9:53 PM 19.0 °F 9.0 °F 9.0 °F 65% 30.19 in 10.0 mi NW 8.1 mph - N/A   Overcast
10:53 PM 18.0 °F 9.8 °F 9.0 °F 68% 30.19 in 10.0 mi NW 5.8 mph - N/A   Overcast
11:53 PM 18.0 °F 9.8 °F 8.1 °F 65% 30.19 in 10.0 mi West 5.8 mph - N/A   Clear